Year,Month,Day,Hour,Minute,Value (Times are PST for temperature in C)
2015,04,28,00,00,11.30
2015,04,28,00,01,11.30
2015,04,28,00,02,11.30
2015,04,28,00,03,11.30
2015,04,28,00,04,11.30
2015,04,28,00,05,11.30
2015,04,28,00,06,11.30
2015,04,28,00,07,11.30
2015,04,28,00,08,11.20
2015,04,28,00,09,11.20
2015,04,28,00,10,11.20
2015,04,28,00,11,11.20
2015,04,28,00,12,11.20
2015,04,28,00,13,11.20
2015,04,28,00,14,11.10
2015,04,28,00,15,11.10
2015,04,28,00,16,11.10
2015,04,28,00,17,11.10
2015,04,28,00,18,11.10
2015,04,28,00,19,11.10
2015,04,28,00,20,11.10
2015,04,28,00,21,11.10
2015,04,28,00,22,11.10
2015,04,28,00,23,11.10
2015,04,28,00,24,11.10
2015,04,28,00,25,11.10
2015,04,28,00,26,11.10
2015,04,28,00,27,11.10
2015,04,28,00,28,11.10
2015,04,28,00,29,11.10
2015,04,28,00,30,11.20
2015,04,28,00,31,11.20
2015,04,28,00,32,11.20
2015,04,28,00,33,11.20
2015,04,28,00,34,11.20
2015,04,28,00,35,11.20
2015,04,28,00,36,11.30
2015,04,28,00,37,11.30
2015,04,28,00,38,11.30
2015,04,28,00,39,11.40
2015,04,28,00,40,11.40
2015,04,28,00,41,11.40
2015,04,28,00,42,11.40
2015,04,28,00,43,11.60
2015,04,28,00,44,11.60
2015,04,28,00,45,11.60
2015,04,28,00,46,11.60
2015,04,28,00,47,11.60
2015,04,28,00,48,11.60
2015,04,28,00,49,11.60
2015,04,28,00,50,11.60
2015,04,28,00,51,11.70
2015,04,28,00,52,11.70
2015,04,28,00,53,11.80
2015,04,28,00,54,11.80
2015,04,28,00,55,11.80
2015,04,28,00,56,11.80
2015,04,28,00,57,11.80
2015,04,28,00,58,11.80
2015,04,28,00,59,11.80
2015,04,28,01,00,11.80
2015,04,28,01,01,11.80
2015,04,28,01,02,11.80
2015,04,28,01,03,11.80
2015,04,28,01,04,11.80
2015,04,28,01,05,11.80
2015,04,28,01,06,11.80
2015,04,28,01,07,11.80
2015,04,28,01,08,11.80
2015,04,28,01,09,11.80
2015,04,28,01,10,11.80
2015,04,28,01,11,11.80
2015,04,28,01,12,11.80
2015,04,28,01,13,11.80
2015,04,28,01,14,11.80
2015,04,28,01,15,11.80
2015,04,28,01,16,11.80
2015,04,28,01,17,11.80
2015,04,28,01,18,11.80
2015,04,28,01,19,11.80
2015,04,28,01,20,11.80
2015,04,28,01,21,11.80
2015,04,28,01,22,11.80
2015,04,28,01,23,11.80
2015,04,28,01,24,11.80
2015,04,28,01,25,11.80
2015,04,28,01,26,11.80
2015,04,28,01,27,11.70
2015,04,28,01,28,11.70
2015,04,28,01,29,11.80
2015,04,28,01,30,11.80
2015,04,28,01,31,11.80
2015,04,28,01,32,11.80
2015,04,28,01,33,11.80
2015,04,28,01,34,11.80
2015,04,28,01,35,11.80
2015,04,28,01,36,11.80
2015,04,28,01,37,11.80
2015,04,28,01,38,11.80
2015,04,28,01,39,11.80
2015,04,28,01,40,11.80
2015,04,28,01,41,11.80
2015,04,28,01,42,11.80
2015,04,28,01,43,11.80
2015,04,28,01,44,11.90
2015,04,28,01,45,11.90
2015,04,28,01,46,11.90
2015,04,28,01,47,11.90
2015,04,28,01,48,12.00
2015,04,28,01,49,12.00
2015,04,28,01,50,12.10
2015,04,28,01,51,12.10
2015,04,28,01,52,12.20
2015,04,28,01,53,12.20
2015,04,28,01,54,12.20
2015,04,28,01,55,12.20
2015,04,28,01,56,12.20
2015,04,28,01,57,12.20
2015,04,28,01,58,12.20
2015,04,28,01,59,12.20
2015,04,28,02,00,12.20
2015,04,28,02,01,12.20
2015,04,28,02,02,12.30
2015,04,28,02,03,12.30
2015,04,28,02,04,12.30
2015,04,28,02,05,12.30
2015,04,28,02,06,12.30
2015,04,28,02,07,12.30
2015,04,28,02,08,12.30
2015,04,28,02,09,12.40
2015,04,28,02,10,12.40
2015,04,28,02,11,12.40
2015,04,28,02,12,12.40
2015,04,28,02,13,12.40
2015,04,28,02,14,12.50
2015,04,28,02,15,12.50
2015,04,28,02,16,12.50
2015,04,28,02,17,12.50
2015,04,28,02,18,12.60
2015,04,28,02,19,12.60
2015,04,28,02,20,12.60
2015,04,28,02,21,12.60
2015,04,28,02,22,12.70
2015,04,28,02,23,12.70
2015,04,28,02,24,12.80
2015,04,28,02,25,12.80
2015,04,28,02,26,12.80
2015,04,28,02,27,12.80
2015,04,28,02,28,12.80
2015,04,28,02,29,12.90
2015,04,28,02,30,12.90
2015,04,28,02,31,13.00
2015,04,28,02,32,13.00
2015,04,28,02,33,13.00
2015,04,28,02,34,13.10
2015,04,28,02,35,13.10
2015,04,28,02,36,13.10
2015,04,28,02,37,13.10
2015,04,28,02,38,13.20
2015,04,28,02,39,13.20
2015,04,28,02,40,13.20
2015,04,28,02,41,13.20
2015,04,28,02,42,13.20
2015,04,28,02,43,13.20
2015,04,28,02,44,13.20
2015,04,28,02,45,13.20
2015,04,28,02,46,13.30
2015,04,28,02,47,13.30
2015,04,28,02,48,13.30
2015,04,28,02,49,13.40
2015,04,28,02,50,13.40
2015,04,28,02,51,13.40
2015,04,28,02,52,13.50
2015,04,28,02,53,13.50
2015,04,28,02,54,13.60
2015,04,28,02,55,13.70
2015,04,28,02,56,13.70
2015,04,28,02,57,13.70
2015,04,28,02,58,13.70
2015,04,28,02,59,13.80
2015,04,28,03,00,13.80
2015,04,28,03,01,13.90
2015,04,28,03,02,13.90
2015,04,28,03,03,14.00
2015,04,28,03,04,14.00
2015,04,28,03,05,14.00
2015,04,28,03,06,14.00
2015,04,28,03,07,14.10
2015,04,28,03,08,14.10
2015,04,28,03,09,14.10
2015,04,28,03,10,14.10
2015,04,28,03,11,14.10
2015,04,28,03,12,14.10
2015,04,28,03,13,14.10
2015,04,28,03,14,14.20
2015,04,28,03,15,14.20
2015,04,28,03,16,14.20
2015,04,28,03,17,14.20
2015,04,28,03,18,14.20
2015,04,28,03,19,14.10
2015,04,28,03,20,14.10
2015,04,28,03,21,14.10
2015,04,28,03,22,14.10
2015,04,28,03,23,14.10
2015,04,28,03,24,14.10
2015,04,28,03,25,14.10
2015,04,28,03,26,14.10
2015,04,28,03,27,14.00
2015,04,28,03,28,14.00
2015,04,28,03,29,14.00
2015,04,28,03,30,14.00
2015,04,28,03,31,14.00
2015,04,28,03,32,14.00
2015,04,28,03,33,14.00
2015,04,28,03,34,14.00
2015,04,28,03,35,14.00
2015,04,28,03,36,14.00
2015,04,28,03,37,13.90
2015,04,28,03,38,13.90
2015,04,28,03,39,13.90
2015,04,28,03,40,13.90
2015,04,28,03,41,13.90
2015,04,28,03,42,13.90
2015,04,28,03,43,13.90
2015,04,28,03,44,13.90
2015,04,28,03,45,13.90
2015,04,28,03,46,13.90
2015,04,28,03,47,13.90
2015,04,28,03,48,13.90
2015,04,28,03,49,13.90
2015,04,28,03,50,13.90
2015,04,28,03,51,13.90
2015,04,28,03,52,13.90
2015,04,28,03,53,13.90
2015,04,28,03,54,13.90
2015,04,28,03,55,13.90
2015,04,28,03,56,13.90
2015,04,28,03,57,13.90
2015,04,28,03,58,14.00
2015,04,28,03,59,14.00
2015,04,28,04,00,14.00
2015,04,28,04,01,14.00
2015,04,28,04,02,14.00
2015,04,28,04,03,14.10
2015,04,28,04,04,14.10
2015,04,28,04,05,14.10
2015,04,28,04,06,14.10
2015,04,28,04,07,14.20
2015,04,28,04,08,14.20
2015,04,28,04,09,14.20
2015,04,28,04,10,14.20
2015,04,28,04,11,14.20
2015,04,28,04,12,14.20
2015,04,28,04,13,14.20
2015,04,28,04,14,14.20
2015,04,28,04,15,14.20
2015,04,28,04,16,14.20
2015,04,28,04,17,14.20
2015,04,28,04,18,14.20
2015,04,28,04,19,14.20
2015,04,28,04,20,14.20
2015,04,28,04,21,14.20
2015,04,28,04,22,14.20
2015,04,28,04,23,14.10
2015,04,28,04,24,14.10
2015,04,28,04,25,14.10
2015,04,28,04,26,14.10
2015,04,28,04,27,14.10
2015,04,28,04,28,14.10
2015,04,28,04,29,14.00
2015,04,28,04,30,14.00
2015,04,28,04,31,14.00
2015,04,28,04,32,14.00
2015,04,28,04,33,14.00
2015,04,28,04,34,13.90
2015,04,28,04,35,13.90
2015,04,28,04,36,13.90
2015,04,28,04,37,13.90
2015,04,28,04,38,13.90
2015,04,28,04,39,13.90
2015,04,28,04,40,13.80
2015,04,28,04,41,13.80
2015,04,28,04,42,13.80
2015,04,28,04,43,13.80
2015,04,28,04,44,13.80
2015,04,28,04,45,13.80
2015,04,28,04,46,13.70
2015,04,28,04,47,13.70
2015,04,28,04,48,13.70
2015,04,28,04,49,13.70
2015,04,28,04,50,13.70
2015,04,28,04,51,13.70
2015,04,28,04,52,13.70
2015,04,28,04,53,13.60
2015,04,28,04,54,13.60
2015,04,28,04,55,13.60
2015,04,28,04,56,13.50
2015,04,28,04,57,13.50
2015,04,28,04,58,13.50
2015,04,28,04,59,13.50
2015,04,28,05,00,13.50
2015,04,28,05,01,13.40
2015,04,28,05,02,13.40
2015,04,28,05,03,13.40
2015,04,28,05,04,13.40
2015,04,28,05,05,13.30
2015,04,28,05,06,13.30
2015,04,28,05,07,13.30
2015,04,28,05,08,13.30
2015,04,28,05,09,13.30
2015,04,28,05,10,13.30
2015,04,28,05,11,13.30
2015,04,28,05,12,13.20
2015,04,28,05,13,13.20
2015,04,28,05,14,13.20
2015,04,28,05,15,13.20
2015,04,28,05,16,13.10
2015,04,28,05,17,13.10
2015,04,28,05,18,13.10
2015,04,28,05,19,13.10
2015,04,28,05,20,13.10
2015,04,28,05,21,13.10
2015,04,28,05,22,13.10
2015,04,28,05,23,13.10
2015,04,28,05,24,13.10
2015,04,28,05,25,13.10
2015,04,28,05,26,13.10
2015,04,28,05,27,13.10
2015,04,28,05,28,13.10
2015,04,28,05,29,13.10
2015,04,28,05,30,13.10
2015,04,28,05,31,13.10
2015,04,28,05,32,13.10
2015,04,28,05,33,13.10
2015,04,28,05,34,13.10
2015,04,28,05,35,13.10
2015,04,28,05,36,13.20
2015,04,28,05,37,13.20
2015,04,28,05,38,13.10
2015,04,28,05,39,13.10
2015,04,28,05,40,13.20
2015,04,28,05,41,13.20
2015,04,28,05,42,13.20
2015,04,28,05,43,13.20
2015,04,28,05,44,13.20
2015,04,28,05,45,13.20
2015,04,28,05,46,13.20
2015,04,28,05,47,13.30
2015,04,28,05,48,13.30
2015,04,28,05,49,13.30
2015,04,28,05,50,13.30
2015,04,28,05,51,13.30
2015,04,28,05,52,13.30
2015,04,28,05,53,13.30
2015,04,28,05,54,13.30
2015,04,28,05,55,13.30
2015,04,28,05,56,13.30
2015,04,28,05,57,13.30
2015,04,28,05,58,13.30
2015,04,28,05,59,13.30
2015,04,28,06,00,13.30
2015,04,28,06,01,13.30
2015,04,28,06,02,13.30
2015,04,28,06,03,13.30
2015,04,28,06,04,13.30
2015,04,28,06,05,13.30
2015,04,28,06,06,13.30
2015,04,28,06,07,13.20
2015,04,28,06,08,13.20
2015,04,28,06,09,13.20
2015,04,28,06,10,13.10
2015,04,28,06,11,13.10
2015,04,28,06,12,13.20
2015,04,28,06,13,13.20
2015,04,28,06,14,13.20
2015,04,28,06,15,13.20
2015,04,28,06,16,13.20
2015,04,28,06,17,13.20
2015,04,28,06,18,13.20
2015,04,28,06,19,13.30
2015,04,28,06,20,13.30
2015,04,28,06,21,13.30
2015,04,28,06,22,13.30
2015,04,28,06,23,13.30
2015,04,28,06,24,13.30
2015,04,28,06,25,13.30
2015,04,28,06,26,13.30
2015,04,28,06,27,13.30
2015,04,28,06,28,13.30
2015,04,28,06,29,13.30
2015,04,28,06,30,13.30
2015,04,28,06,31,13.30
2015,04,28,06,32,13.30
2015,04,28,06,33,13.30
2015,04,28,06,34,13.20
2015,04,28,06,35,13.20
2015,04,28,06,36,13.20
2015,04,28,06,37,13.20
2015,04,28,06,38,13.20
2015,04,28,06,39,13.20
2015,04,28,06,40,13.20
2015,04,28,06,41,13.20
2015,04,28,06,42,13.20
2015,04,28,06,43,13.20
2015,04,28,06,44,13.20
2015,04,28,06,45,13.20
2015,04,28,06,46,13.20
2015,04,28,06,47,13.20
2015,04,28,06,48,13.20
2015,04,28,06,49,13.20
2015,04,28,06,50,13.20
2015,04,28,06,51,13.20
2015,04,28,06,52,13.20
2015,04,28,06,53,13.20
2015,04,28,06,54,13.20
2015,04,28,06,55,13.20
2015,04,28,06,56,13.20
2015,04,28,06,57,13.20
2015,04,28,06,58,13.20
2015,04,28,06,59,13.20
2015,04,28,07,00,13.20
2015,04,28,07,01,13.30
2015,04,28,07,02,13.30
2015,04,28,07,03,13.30
2015,04,28,07,04,13.30
2015,04,28,07,05,13.30
2015,04,28,07,06,13.30
2015,04,28,07,07,13.20
2015,04,28,07,08,13.20
2015,04,28,07,09,13.20
2015,04,28,07,10,13.20
2015,04,28,07,11,13.20
2015,04,28,07,12,13.10
2015,04,28,07,13,13.10
2015,04,28,07,14,13.10
2015,04,28,07,15,13.00
2015,04,28,07,16,12.90
2015,04,28,07,17,12.90
2015,04,28,07,18,12.80
2015,04,28,07,19,12.80
2015,04,28,07,20,12.60
2015,04,28,07,21,12.60
2015,04,28,07,22,12.50
2015,04,28,07,23,12.40
2015,04,28,07,24,12.40
2015,04,28,07,25,12.30
2015,04,28,07,26,12.20
2015,04,28,07,27,12.10
2015,04,28,07,28,12.00
2015,04,28,07,29,11.90
2015,04,28,07,30,11.90
2015,04,28,07,31,11.80
2015,04,28,07,32,11.70
2015,04,28,07,33,11.60
2015,04,28,07,34,11.60
2015,04,28,07,35,11.60
2015,04,28,07,36,11.60
2015,04,28,07,37,11.60
2015,04,28,07,38,11.40
2015,04,28,07,39,11.40
2015,04,28,07,40,11.40
2015,04,28,07,41,11.40
2015,04,28,07,42,11.30
2015,04,28,07,43,11.20
2015,04,28,07,44,11.20
2015,04,28,07,45,11.10
2015,04,28,07,46,11.10
2015,04,28,07,47,11.10
2015,04,28,07,48,11.10
2015,04,28,07,49,11.00
2015,04,28,07,50,10.90
2015,04,28,07,51,11.00
2015,04,28,07,52,11.10
2015,04,28,07,53,11.10
2015,04,28,07,54,11.10
2015,04,28,07,55,11.10
2015,04,28,07,56,11.10
2015,04,28,07,57,11.10
2015,04,28,07,58,11.10
2015,04,28,07,59,11.10
2015,04,28,08,00,11.10
2015,04,28,08,01,11.10
2015,04,28,08,02,11.10
2015,04,28,08,03,11.10
2015,04,28,08,04,11.10
2015,04,28,08,05,11.10
2015,04,28,08,06,11.10
2015,04,28,08,07,11.20
2015,04,28,08,08,11.30
2015,04,28,08,09,11.40
2015,04,28,08,10,11.40
2015,04,28,08,11,11.50
2015,04,28,08,12,11.60
2015,04,28,08,13,11.60
2015,04,28,08,14,11.60
2015,04,28,08,15,11.60
2015,04,28,08,16,11.50
2015,04,28,08,17,11.40
2015,04,28,08,18,11.30
2015,04,28,08,19,11.20
2015,04,28,08,20,11.10
2015,04,28,08,21,11.00
2015,04,28,08,22,10.90
2015,04,28,08,23,10.90
2015,04,28,08,24,10.80
2015,04,28,08,25,10.80
2015,04,28,08,26,10.70
2015,04,28,08,27,10.70
2015,04,28,08,28,10.70
2015,04,28,08,29,10.70
2015,04,28,08,30,10.60
2015,04,28,08,31,10.60
2015,04,28,08,32,10.60
2015,04,28,08,33,10.60
2015,04,28,08,34,10.60
2015,04,28,08,35,10.60
2015,04,28,08,36,10.60
2015,04,28,08,37,10.60
2015,04,28,08,38,10.60
2015,04,28,08,39,10.60
2015,04,28,08,40,10.60
2015,04,28,08,41,10.60
2015,04,28,08,42,10.60
2015,04,28,08,43,10.60
2015,04,28,08,44,10.60
2015,04,28,08,45,10.60
2015,04,28,08,46,10.60
2015,04,28,08,47,10.60
2015,04,28,08,48,10.60
2015,04,28,08,49,10.60
2015,04,28,08,50,10.60
2015,04,28,08,51,10.60
2015,04,28,08,52,10.60
2015,04,28,08,53,10.60
2015,04,28,08,54,10.60
2015,04,28,08,55,10.60
2015,04,28,08,56,10.60
2015,04,28,08,57,10.60
2015,04,28,08,58,10.60
2015,04,28,08,59,10.60
2015,04,28,09,00,10.60
2015,04,28,09,01,10.60
2015,04,28,09,02,10.60
2015,04,28,09,03,10.70
2015,04,28,09,04,10.70
2015,04,28,09,05,10.70
2015,04,28,09,06,10.70
2015,04,28,09,07,10.70
2015,04,28,09,08,10.70
2015,04,28,09,09,10.70
2015,04,28,09,10,10.70
2015,04,28,09,11,10.70
2015,04,28,09,12,10.70
2015,04,28,09,13,10.80
2015,04,28,09,14,10.80
2015,04,28,09,15,10.80
2015,04,28,09,16,10.80
2015,04,28,09,17,10.80
2015,04,28,09,18,10.80
2015,04,28,09,19,10.80
2015,04,28,09,20,10.80
2015,04,28,09,21,10.80
2015,04,28,09,22,10.70
2015,04,28,09,23,10.70
2015,04,28,09,24,10.70
2015,04,28,09,25,10.70
2015,04,28,09,26,10.70
2015,04,28,09,27,10.60
2015,04,28,09,28,10.60
2015,04,28,09,29,10.60
2015,04,28,09,30,10.60
2015,04,28,09,31,10.60
2015,04,28,09,32,10.60
2015,04,28,09,33,10.50
2015,04,28,09,34,10.40
2015,04,28,09,35,10.40
2015,04,28,09,36,10.40
2015,04,28,09,37,10.40
2015,04,28,09,38,10.40
2015,04,28,09,39,10.40
2015,04,28,09,40,10.40
2015,04,28,09,41,10.40
2015,04,28,09,42,10.40
2015,04,28,09,43,10.40
2015,04,28,09,44,10.50
2015,04,28,09,45,10.60
2015,04,28,09,46,10.60
2015,04,28,09,47,10.60
2015,04,28,09,48,10.60
2015,04,28,09,49,10.60
2015,04,28,09,50,10.60
2015,04,28,09,51,10.60
2015,04,28,09,52,10.70
2015,04,28,09,53,10.70
2015,04,28,09,54,10.70
2015,04,28,09,55,10.70
2015,04,28,09,56,10.80
2015,04,28,09,57,10.80
2015,04,28,09,58,10.80
2015,04,28,09,59,10.80
2015,04,28,10,00,10.80
2015,04,28,10,01,10.80
2015,04,28,10,02,10.80
2015,04,28,10,03,10.80
2015,04,28,10,04,10.80
2015,04,28,10,05,10.80
2015,04,28,10,06,10.80
2015,04,28,10,07,10.70
2015,04,28,10,08,10.70
2015,04,28,10,09,10.70
2015,04,28,10,10,10.70
2015,04,28,10,11,10.70
2015,04,28,10,12,10.60
2015,04,28,10,13,10.60
2015,04,28,10,14,10.60
2015,04,28,10,15,10.60
2015,04,28,10,16,10.60
2015,04,28,10,17,10.60
2015,04,28,10,18,10.60
2015,04,28,10,19,10.60
2015,04,28,10,20,10.60
2015,04,28,10,21,10.60
2015,04,28,10,22,10.60
2015,04,28,10,23,10.60
2015,04,28,10,24,10.60
2015,04,28,10,25,10.70
2015,04,28,10,26,10.70
2015,04,28,10,27,10.80
2015,04,28,10,28,10.80
2015,04,28,10,29,10.80
2015,04,28,10,30,10.80
2015,04,28,10,31,10.70
2015,04,28,10,32,10.70
2015,04,28,10,33,10.70
2015,04,28,10,34,10.70
2015,04,28,10,35,10.70
2015,04,28,10,36,10.60
2015,04,28,10,37,10.60
2015,04,28,10,38,10.60
2015,04,28,10,39,10.60
2015,04,28,10,40,10.60
2015,04,28,10,41,10.60
2015,04,28,10,42,10.60
2015,04,28,10,43,10.60
2015,04,28,10,44,10.60
2015,04,28,10,45,10.60
2015,04,28,10,46,10.60
2015,04,28,10,47,10.60
2015,04,28,10,48,10.60
2015,04,28,10,49,10.60
2015,04,28,10,50,10.60
2015,04,28,10,51,10.60
2015,04,28,10,52,10.60
2015,04,28,10,53,10.60
2015,04,28,10,54,10.50
2015,04,28,10,55,10.40
2015,04,28,10,56,10.40
2015,04,28,10,57,10.40
2015,04,28,10,58,10.40
2015,04,28,10,59,10.40
2015,04,28,11,00,10.40
2015,04,28,11,01,10.30
2015,04,28,11,02,10.30
2015,04,28,11,03,10.30
2015,04,28,11,04,10.30
2015,04,28,11,05,10.30
2015,04,28,11,06,10.30
2015,04,28,11,07,10.30
2015,04,28,11,09,10.20
2015,04,28,11,11,10.10
2015,04,28,11,12,10.10
2015,04,28,11,13,10.10
2015,04,28,11,14,10.20
2015,04,28,11,15,10.20
2015,04,28,11,16,10.20
2015,04,28,11,17,10.20
2015,04,28,11,18,10.20
2015,04,28,11,19,10.20
2015,04,28,11,20,10.20
2015,04,28,11,21,10.20
2015,04,28,11,22,10.10
2015,04,28,11,23,10.10
2015,04,28,11,24,10.10
2015,04,28,11,25,10.20
2015,04,28,11,26,10.10
2015,04,28,11,27,10.10
2015,04,28,11,28,10.10
2015,04,28,11,29,10.10
2015,04,28,11,30,10.10
2015,04,28,11,31,10.10
2015,04,28,11,32,10.10
2015,04,28,11,33,10.10
2015,04,28,11,34,10.10
2015,04,28,11,35,10.10
2015,04,28,11,36,10.00
2015,04,28,11,37,9.90
2015,04,28,11,38,9.90
2015,04,28,11,39,9.90
2015,04,28,11,40,9.80
2015,04,28,11,41,9.80
2015,04,28,11,42,9.80
2015,04,28,11,43,9.70
2015,04,28,11,44,9.70
2015,04,28,11,45,9.70
2015,04,28,11,46,9.70
2015,04,28,11,47,9.70
2015,04,28,11,48,9.70
2015,04,28,11,49,9.70
2015,04,28,11,50,9.70
2015,04,28,11,51,9.60
2015,04,28,11,52,9.60
2015,04,28,11,53,9.50
2015,04,28,11,54,9.50
2015,04,28,11,55,9.50
2015,04,28,11,56,9.50
2015,04,28,11,57,9.50
2015,04,28,11,58,9.40
2015,04,28,11,59,9.50
2015,04,28,12,00,9.40
2015,04,28,12,01,9.40
2015,04,28,12,02,9.40
2015,04,28,12,03,9.40
2015,04,28,12,04,9.40
2015,04,28,12,05,9.40
2015,04,28,12,06,9.50
2015,04,28,12,07,9.50
2015,04,28,12,08,9.50
2015,04,28,12,09,9.50
2015,04,28,12,10,9.50
2015,04,28,12,11,9.50
2015,04,28,12,12,9.50
2015,04,28,12,13,9.50
2015,04,28,12,14,9.50
2015,04,28,12,15,9.50
2015,04,28,12,16,9.50
2015,04,28,12,17,9.50
2015,04,28,12,18,9.50
2015,04,28,12,19,9.50
2015,04,28,12,20,9.50
2015,04,28,12,21,9.60
2015,04,28,12,22,9.60
2015,04,28,12,23,9.60
2015,04,28,12,24,9.60
2015,04,28,12,25,9.60
2015,04,28,12,26,9.70
2015,04,28,12,27,9.70
2015,04,28,12,28,9.70
2015,04,28,12,29,9.70
2015,04,28,12,30,9.70
2015,04,28,12,31,9.70
2015,04,28,12,32,9.80
2015,04,28,12,33,9.80
2015,04,28,12,34,9.80
2015,04,28,12,35,9.80
2015,04,28,12,36,9.80
2015,04,28,12,37,9.80
2015,04,28,12,38,9.90
2015,04,28,12,39,9.90
2015,04,28,12,40,9.90
2015,04,28,12,41,9.90
2015,04,28,12,42,9.90
2015,04,28,12,43,9.90
2015,04,28,12,44,10.00
2015,04,28,12,45,10.10
2015,04,28,12,46,10.10
2015,04,28,12,47,10.10
2015,04,28,12,48,10.10
2015,04,28,12,49,10.10
2015,04,28,12,50,10.10
2015,04,28,12,51,10.10
2015,04,28,12,52,10.10
2015,04,28,12,53,10.20
2015,04,28,12,54,10.20
2015,04,28,12,55,10.20
2015,04,28,12,56,10.20
2015,04,28,12,57,10.30
2015,04,28,12,58,10.30
2015,04,28,12,59,10.40
2015,04,28,13,00,10.40
2015,04,28,13,01,10.40
2015,04,28,13,02,10.40
2015,04,28,13,03,10.40
2015,04,28,13,04,10.40
2015,04,28,13,05,10.40
2015,04,28,13,06,10.40
2015,04,28,13,07,10.40
2015,04,28,13,08,10.40
2015,04,28,13,09,10.40
2015,04,28,13,10,10.40
2015,04,28,13,11,10.40
2015,04,28,13,12,10.40
2015,04,28,13,13,10.40
2015,04,28,13,14,10.40
2015,04,28,13,15,10.50
2015,04,28,13,16,10.60
2015,04,28,13,17,10.60
2015,04,28,13,18,10.60
2015,04,28,13,19,10.60
2015,04,28,13,20,10.60
2015,04,28,13,21,10.60
2015,04,28,13,22,10.70
2015,04,28,13,23,10.70
2015,04,28,13,24,10.80
2015,04,28,13,25,10.80
2015,04,28,13,26,10.90
2015,04,28,13,27,10.90
2015,04,28,13,28,10.90
2015,04,28,13,29,11.00
2015,04,28,13,30,11.10
2015,04,28,13,31,11.10
2015,04,28,13,32,11.10
2015,04,28,13,33,11.10
2015,04,28,13,34,11.20
2015,04,28,13,35,11.30
2015,04,28,13,36,11.30
2015,04,28,13,37,11.40
2015,04,28,13,38,11.40
2015,04,28,13,39,11.50
2015,04,28,13,40,11.60
2015,04,28,13,41,11.60
2015,04,28,13,42,11.60
2015,04,28,13,43,11.70
2015,04,28,13,44,11.80
2015,04,28,13,45,11.80
2015,04,28,13,46,11.80
2015,04,28,13,47,11.80
2015,04,28,13,48,11.80
2015,04,28,13,49,11.80
2015,04,28,13,50,11.90
2015,04,28,13,51,11.90
2015,04,28,13,52,12.00
2015,04,28,13,53,12.00
2015,04,28,13,54,12.10
2015,04,28,13,55,12.20
2015,04,28,13,56,12.20
2015,04,28,13,57,12.30
2015,04,28,13,58,12.30
2015,04,28,13,59,12.30
2015,04,28,14,00,12.50
2015,04,28,14,01,12.50
2015,04,28,14,02,12.60
2015,04,28,14,03,12.60
2015,04,28,14,04,12.70
2015,04,28,14,05,12.80
2015,04,28,14,06,12.80
2015,04,28,14,07,12.80
2015,04,28,14,08,12.80
2015,04,28,14,09,12.80
2015,04,28,14,10,12.80
2015,04,28,14,11,12.80
2015,04,28,14,12,12.80
2015,04,28,14,13,12.80
2015,04,28,14,14,12.80
2015,04,28,14,15,12.80
2015,04,28,14,16,12.90
2015,04,28,14,17,13.00
2015,04,28,14,18,13.00
2015,04,28,14,19,13.10
2015,04,28,14,20,13.20
2015,04,28,14,21,13.20
2015,04,28,14,22,13.30
2015,04,28,14,23,13.30
2015,04,28,14,24,13.30
2015,04,28,14,25,13.30
2015,04,28,14,26,13.30
2015,04,28,14,27,13.40
2015,04,28,14,28,13.40
2015,04,28,14,29,13.40
2015,04,28,14,30,13.40
2015,04,28,14,31,13.40
2015,04,28,14,32,13.40
2015,04,28,14,33,13.40
2015,04,28,14,34,13.50
2015,04,28,14,35,13.60
2015,04,28,14,36,13.60
2015,04,28,14,37,13.60
2015,04,28,14,38,13.60
2015,04,28,14,39,13.60
2015,04,28,14,40,13.60
2015,04,28,14,41,13.60
2015,04,28,14,42,13.60
2015,04,28,14,43,13.70
2015,04,28,14,44,13.70
2015,04,28,14,45,13.70
2015,04,28,14,46,13.80
2015,04,28,14,47,13.70
2015,04,28,14,48,13.80
2015,04,28,14,49,13.80
2015,04,28,14,50,13.80
2015,04,28,14,51,13.80
2015,04,28,14,52,13.90
2015,04,28,14,53,13.90
2015,04,28,14,54,13.90
2015,04,28,14,55,14.00
2015,04,28,14,56,14.00
2015,04,28,14,57,14.00
2015,04,28,14,58,14.00
2015,04,28,14,59,14.00
2015,04,28,15,00,14.00
2015,04,28,15,01,14.00
2015,04,28,15,02,14.00
2015,04,28,15,03,14.00
2015,04,28,15,04,14.10
2015,04,28,15,05,14.10
2015,04,28,15,06,14.10
2015,04,28,15,07,14.10
2015,04,28,15,08,14.10
2015,04,28,15,09,14.20
2015,04,28,15,10,14.30
2015,04,28,15,11,14.30
2015,04,28,15,12,14.30
2015,04,28,15,13,14.30
2015,04,28,15,14,14.40
2015,04,28,15,15,14.50
2015,04,28,15,16,14.50
2015,04,28,15,17,14.60
2015,04,28,15,18,14.60
2015,04,28,15,19,14.60
2015,04,28,15,20,14.60
2015,04,28,15,21,14.50
2015,04,28,15,22,14.40
2015,04,28,15,23,14.40
2015,04,28,15,24,14.40
2015,04,28,15,25,14.40
2015,04,28,15,26,14.40
2015,04,28,15,27,14.30
2015,04,28,15,28,14.30
2015,04,28,15,29,14.30
2015,04,28,15,30,14.30
2015,04,28,15,31,14.30
2015,04,28,15,32,14.30
2015,04,28,15,33,14.30
2015,04,28,15,34,14.30
2015,04,28,15,35,14.20
2015,04,28,15,36,14.30
2015,04,28,15,37,14.30
2015,04,28,15,38,14.40
2015,04,28,15,39,14.50
2015,04,28,15,40,14.50
2015,04,28,15,41,14.60
2015,04,28,15,42,14.70
2015,04,28,15,43,14.80
2015,04,28,15,44,14.70
2015,04,28,15,45,14.70
2015,04,28,15,46,14.70
2015,04,28,15,47,14.60
2015,04,28,15,48,14.60
2015,04,28,15,49,14.60
2015,04,28,15,50,14.70
2015,04,28,15,51,14.60
2015,04,28,15,52,14.60
2015,04,28,15,53,14.60
2015,04,28,15,54,14.60
2015,04,28,15,55,14.60
2015,04,28,15,56,14.60
2015,04,28,15,57,14.50
2015,04,28,15,58,14.40
2015,04,28,15,59,14.40
2015,04,28,16,00,14.40
2015,04,28,16,01,14.40
2015,04,28,16,02,14.40
2015,04,28,16,03,14.30
2015,04,28,16,04,14.30
2015,04,28,16,05,14.20
2015,04,28,16,06,14.20
2015,04,28,16,07,14.20
2015,04,28,16,08,14.20
2015,04,28,16,09,14.20
2015,04,28,16,10,14.20
2015,04,28,16,11,14.20
2015,04,28,16,12,14.20
2015,04,28,16,13,14.20
2015,04,28,16,14,14.20
2015,04,28,16,15,14.20
2015,04,28,16,16,14.20
2015,04,28,16,17,14.20
2015,04,28,16,18,14.20
2015,04,28,16,19,14.20
2015,04,28,16,20,14.20
2015,04,28,16,21,14.20
2015,04,28,16,22,14.30
2015,04,28,16,23,14.30
2015,04,28,16,24,14.30
2015,04,28,16,25,14.30
2015,04,28,16,26,14.30
2015,04,28,16,27,14.30
2015,04,28,16,28,14.30
2015,04,28,16,29,14.30
2015,04,28,16,30,14.30
2015,04,28,16,31,14.30
2015,04,28,16,32,14.30
2015,04,28,16,33,14.30
2015,04,28,16,34,14.30
2015,04,28,16,35,14.30
2015,04,28,16,36,14.30
2015,04,28,16,37,14.40
2015,04,28,16,38,14.30
2015,04,28,16,39,14.30
2015,04,28,16,40,14.20
2015,04,28,16,41,14.20
2015,04,28,16,42,14.20
2015,04,28,16,43,14.20
2015,04,28,16,44,14.20
2015,04,28,16,45,14.20
2015,04,28,16,46,14.20
2015,04,28,16,47,14.20
2015,04,28,16,48,14.20
2015,04,28,16,49,14.20
2015,04,28,16,50,14.20
2015,04,28,16,51,14.30
2015,04,28,16,52,14.30
2015,04,28,16,53,14.30
2015,04,28,16,54,14.30
2015,04,28,16,55,14.30
2015,04,28,16,56,14.40
2015,04,28,16,57,14.40
2015,04,28,16,58,14.40
2015,04,28,16,59,14.40
2015,04,28,17,00,14.40
2015,04,28,17,01,14.40
2015,04,28,17,02,14.40
2015,04,28,17,03,14.30
2015,04,28,17,04,14.30
2015,04,28,17,05,14.30
2015,04,28,17,06,14.30
2015,04,28,17,07,14.20
2015,04,28,17,08,14.30
2015,04,28,17,09,14.20
2015,04,28,17,10,14.20
2015,04,28,17,11,14.30
2015,04,28,17,12,14.30
2015,04,28,17,13,14.30
2015,04,28,17,14,14.30
2015,04,28,17,15,14.20
2015,04,28,17,16,14.20
2015,04,28,17,17,14.20
2015,04,28,17,18,14.20
2015,04,28,17,19,14.20
2015,04,28,17,20,14.20
2015,04,28,17,21,14.20
2015,04,28,17,22,14.20
2015,04,28,17,23,14.20
2015,04,28,17,24,14.20